Location: Aldenham
(51.6667°N, 0.3500°W)
Time: 01:26:50
(UTC+00:00)

A-11 Canister half - Pass Details

Date: 19 February 2026
Orbit: 1512 x 1687 km, 47.2° (Epoch: 8 March)

Event Time Altitude Azimuth Distance (km) Brightness Sun altitude
Rises 18:02:43 0° 170° (S) 4,928 11.7 -6.8°
Reaches altitude 10° 18:08:39 10° 144° (SE) 3,944 10.9 -7.7°
Maximum altitude 18:12:10 12° 123° (ESE) 3,755 10.6 -8.2°
Drops below altitude 10° 18:15:40 10° 102° (ESE) 3,934 10.5 -8.7°
Enters shadow 18:16:35 - 97° (E) 4,037 10.6 -8.9°
Sets 18:21:31 0° 76° (ENE) 4,901 - -9.6°
